datetime,bypass release volume
2009-08-20,128.0
2009-08-21,122.0
2009-08-22,155.0
2009-08-23,177.0
2009-08-24,124.0
2009-08-25,108.0
2009-08-26,52.0
2009-08-27,155.0
2009-08-28,149.0
2009-08-29,157.0
2009-08-30,116.0
2009-08-31,113.0
2009-09-01,115.0
2009-09-02,110.0
2009-09-03,146.0
2009-09-04,141.0
2009-09-05,117.0
2009-09-06,74.0
2009-09-07,60.0
2009-09-08,85.0
2009-09-09,46.0
2009-09-10,16.0
2009-09-11,39.0
2009-09-12,53.0
2009-09-13,36.0
2009-09-14,17.0
2009-09-15,0.0
2009-09-16,0.0
2009-09-17,0.0
2009-09-18,0.0
2009-09-19,0.0
2009-09-20,0.0
2009-09-21,0.0
2009-09-22,0.0
2009-09-23,0.0
2009-09-24,0.0
2009-09-25,0.0
2009-09-26,0.0
2009-09-27,0.0
2009-09-28,0.0
2009-09-29,0.0
2009-09-30,0.0
2009-10-01,0.0
2009-10-02,0.0
2009-10-03,0.0
2009-10-04,0.0
2009-10-05,0.0
2009-10-06,0.0
2009-10-07,0.0
2009-10-08,0.0
2009-10-09,0.0
2009-10-10,0.0
2009-10-11,0.0
2009-10-12,0.0
2009-10-13,0.0
2009-10-14,0.0
2009-10-15,0.0
2009-10-16,0.0
2009-10-17,0.0
2009-10-18,0.0
2009-10-19,0.0
2009-10-20,0.0
2009-10-21,0.0
2009-10-22,0.0
2009-10-23,0.0
2009-10-24,0.0
2009-10-25,0.0
2009-10-26,0.0
2009-10-27,0.0
2009-10-28,0.0
2009-10-29,0.0
2009-10-30,0.0
2009-10-31,0.0
2009-11-01,0.0
2009-11-02,0.0
2009-11-03,0.0
2009-11-04,0.0
2009-11-05,0.0
2009-11-06,0.0
2009-11-07,0.0
2009-11-08,0.0
2009-11-09,0.0
2009-11-10,0.0
2009-11-11,0.0
2009-11-12,0.0
2009-11-13,0.0
2009-11-14,0.0
2009-11-15,0.0
2009-11-16,0.0
2009-11-17,0.0
2009-11-18,0.0
2009-11-19,0.0
2009-11-20,0.0
2009-11-21,0.0
2009-11-22,0.0
2009-11-23,0.0
2009-11-24,0.0
2009-11-25,0.0
2009-11-26,0.0
2009-11-27,0.0
2009-11-28,0.0
2009-11-29,0.0
2009-11-30,0.0
2009-12-01,0.0
2009-12-02,0.0
2009-12-03,0.0
2009-12-04,0.0
2009-12-05,0.0
2009-12-06,0.0
2009-12-07,0.0
2009-12-08,0.0
2009-12-09,0.0
2009-12-10,0.0
2009-12-11,0.0
2009-12-12,0.0
2009-12-13,0.0
2009-12-14,0.0
2009-12-15,0.0
2009-12-16,0.0
2009-12-17,0.0
2009-12-18,0.0
2009-12-19,0.0
2009-12-20,0.0
2009-12-21,0.0
2009-12-22,0.0
2009-12-23,0.0
2009-12-24,0.0
2009-12-25,0.0
2009-12-26,0.0
2009-12-27,0.0
2009-12-28,0.0
2009-12-29,0.0
2009-12-30,0.0
2009-12-31,0.0
2010-01-01,0.0
2010-01-02,0.0
2010-01-03,0.0
2010-01-04,0.0
2010-01-05,0.0
2010-01-06,0.0
2010-01-07,0.0
2010-01-08,0.0
2010-01-09,0.0
2010-01-10,0.0
2010-01-11,0.0
2010-01-12,0.0
2010-01-13,0.0
2010-01-14,0.0
2010-01-15,0.0
2010-01-16,0.0
2010-01-17,0.0
2010-01-18,0.0
2010-01-19,0.0
2010-01-20,0.0
2010-01-21,0.0
2010-01-22,0.0
2010-01-23,0.0
2010-01-24,0.0
2010-01-25,0.0
2010-01-26,0.0
2010-01-27,0.0
2010-01-28,0.0
2010-01-29,0.0
2010-01-30,0.0
2010-01-31,0.0
2010-02-01,0.0
2010-02-02,0.0
2010-02-03,0.0
2010-02-04,0.0
2010-02-05,0.0
2010-02-06,0.0
2010-02-07,0.0
2010-02-08,0.0
2010-02-09,0.0
2010-02-10,0.0
2010-02-11,0.0
2010-02-12,0.0
2010-02-13,0.0
2010-02-14,0.0
2010-02-15,0.0
2010-02-16,0.0
2010-02-17,0.0
2010-02-18,0.0
2010-02-19,0.0
2010-02-20,0.0
2010-02-21,0.0
2010-02-22,0.0
2010-02-23,0.0
2010-02-24,0.0
2010-02-25,0.0
2010-02-26,0.0
2010-02-27,0.0
2010-02-28,0.0
2010-03-01,0.0
2010-03-02,0.0
2010-03-03,0.0
2010-03-04,0.0
2010-03-05,0.0
2010-03-06,0.0
2010-03-07,0.0
2010-03-08,0.0
2010-03-09,0.0
2010-03-10,0.0
2010-03-11,0.0
2010-03-12,0.0
2010-03-13,0.0
2010-03-14,0.0
2010-03-15,0.0
2010-03-16,0.0
2010-03-17,0.0
2010-03-18,0.0
2010-03-19,0.0
2010-03-20,0.0
2010-03-21,0.0
2010-03-22,0.0
2010-03-23,0.0
2010-03-24,0.0
2010-03-25,0.0
2010-03-26,0.0
2010-03-27,0.0
2010-03-28,0.0
2010-03-29,0.0
2010-03-30,0.0
2010-03-31,0.0
2010-04-01,0.0
2010-04-02,0.0
2010-04-03,0.0
2010-04-04,0.0
2010-04-05,0.0
2010-04-06,0.0
2010-04-07,0.0
2010-04-08,0.0
2010-04-09,0.0
2010-04-10,0.0
2010-04-11,0.0
2010-04-12,0.0
2010-04-13,0.0
2010-04-14,0.0
2010-04-15,0.0
2010-04-16,0.0
2010-04-17,0.0
2010-04-18,0.0
2010-04-19,0.0
2010-04-20,0.0
2010-04-21,0.0
2010-04-22,0.0
2010-04-23,0.0
2010-04-24,0.0
2010-04-25,0.0
2010-04-26,0.0
2010-04-27,0.0
2010-04-28,0.0
2010-04-29,8.0
2010-04-30,8.0
2010-05-01,119.0
2010-05-02,119.0
2010-05-03,116.0
2010-05-04,122.0
2010-05-05,186.0
2010-05-06,96.0
2010-05-07,0.0
2010-05-08,0.0
2010-05-09,52.0
2010-05-10,52.0
2010-05-11,170.0
2010-05-12,244.0
2010-05-13,300.0
2010-05-14,300.0
2010-05-15,257.0
2010-05-16,472.0
2010-05-17,565.0
2010-05-18,460.0
2010-05-19,237.0
2010-05-20,153.0
2010-05-21,46.0
2010-05-22,46.0
2010-05-23,0.0
2010-05-24,0.0
2010-05-25,0.0
2010-05-26,0.0
2010-05-27,0.0
2010-05-28,0.0
2010-05-29,0.0
2010-05-30,0.0
2010-05-31,0.0
2010-06-01,0.0
2010-06-02,0.0
2010-06-03,0.0
2010-06-04,0.0
2010-06-05,0.0
2010-06-06,0.0
2010-06-07,0.0
2010-06-08,0.0
2010-06-09,0.0
2010-06-10,0.0
2010-06-11,0.0
2010-06-12,0.0
2010-06-13,0.0
2010-06-14,0.0
2010-06-15,0.0
2010-06-16,0.0
2010-06-17,0.0
2010-06-18,0.0
2010-06-19,0.0
2010-06-20,57.0
2010-06-21,105.0
2010-06-22,115.0
2010-06-23,152.0
2010-06-24,218.0
2010-06-25,206.0
2010-06-26,182.0
2010-06-27,182.0
2010-06-28,180.0
2010-06-29,186.0
2010-06-30,161.0
2010-07-01,164.0
2010-07-02,144.0
2010-07-03,145.0
2010-07-04,149.0
2010-07-05,197.0
2010-07-06,232.0
2010-07-07,74.0
2010-07-08,54.0
2010-07-09,39.0
2010-07-10,0.0
2010-07-11,0.0
2010-07-12,0.0
2010-07-13,0.0
2010-07-14,0.0
2010-07-15,21.0
2010-07-16,98.0
2010-07-17,153.0
2010-07-18,143.0
2010-07-19,154.0
2010-07-20,198.0
2010-07-21,237.0
2010-07-22,218.0
2010-07-23,179.0
2010-07-24,175.0
2010-07-25,208.0
2010-07-26,236.0
2010-07-27,153.0
2010-07-28,132.0
2010-07-29,125.0
2010-07-30,193.0
2010-07-31,217.0
2010-08-01,212.0
2010-08-02,191.0
2010-08-03,217.0
2010-08-04,150.0
2010-08-05,37.0
2010-08-06,10.0
2010-08-07,47.0
2010-08-08,30.0
2010-08-09,56.0
2010-08-10,86.0
2010-08-11,81.0
2010-08-12,191.0
2010-08-13,169.0
2010-08-14,183.0
2010-08-15,230.0
2010-08-16,254.0
2010-08-17,262.0
2010-08-18,270.0
2010-08-19,205.0
2010-08-20,146.0
2010-08-21,65.0
2010-08-22,4.0
2010-08-23,0.0
2010-08-24,5.0
2010-08-25,52.0
2010-08-26,62.0
2010-08-27,23.0
2010-08-28,0.0
2010-08-29,8.0
2010-08-30,7.0
2010-08-31,6.0
2010-09-01,0.0
2010-09-02,0.0
2010-09-03,0.0
2010-09-04,7.0
2010-09-05,21.0
2010-09-06,5.0
2010-09-07,8.0
2010-09-08,0.0
2010-09-09,0.0
2010-09-10,0.0
2010-09-11,0.0
2010-09-12,7.0
2010-09-13,19.0
2010-09-14,67.0
2010-09-15,89.0
2010-09-16,53.0
2010-09-17,34.0
2010-09-18,34.0
2010-09-19,21.0
2010-09-20,66.0
2010-09-21,35.0
2010-09-22,5.0
2010-09-23,0.0
2010-09-24,0.0
2010-09-25,0.0
2010-09-26,0.0
2010-09-27,0.0
2010-09-28,19.0
2010-09-29,20.0
2010-09-30,8.0
2010-10-01,0.0
2010-10-02,0.0
2010-10-03,0.0
2010-10-04,0.0
2010-10-05,0.0
2010-10-06,0.0
2010-10-07,0.0
2010-10-08,0.0
2010-10-09,0.0
2010-10-10,0.0
2010-10-11,0.0
2010-10-12,0.0
2010-10-13,0.0
2010-10-14,0.0
2010-10-15,0.0
2010-10-16,0.0
2010-10-17,0.0
2010-10-18,0.0
2010-10-19,0.0
2010-10-20,0.0
2010-10-21,0.0
2010-10-22,0.0
2010-10-23,0.0
2010-10-24,0.0
2010-10-25,179.0
2010-10-26,285.0
2010-10-27,288.0
2010-10-28,187.0
2010-10-29,0.0
2010-10-30,0.0
2010-10-31,0.0
2010-11-01,0.0
2010-11-02,0.0
2010-11-03,0.0
2010-11-04,0.0
2010-11-05,0.0
2010-11-06,0.0
2010-11-07,0.0
2010-11-08,0.0
2010-11-09,0.0
2010-11-10,0.0
2010-11-11,0.0
2010-11-12,0.0
2010-11-13,0.0
2010-11-14,0.0
2010-11-15,0.0
2010-11-16,0.0
2010-11-17,0.0
2010-11-18,0.0
2010-11-19,0.0
2010-11-20,0.0
2010-11-21,0.0
2010-11-22,0.0
2010-11-23,0.0
2010-11-24,0.0
2010-11-25,0.0
2010-11-26,0.0
2010-11-27,0.0
2010-11-28,0.0
2010-11-29,0.0
2010-11-30,0.0
2010-12-01,0.0
2010-12-02,0.0
2010-12-03,0.0
2010-12-04,0.0
2010-12-05,0.0
2010-12-06,0.0
2010-12-07,0.0
2010-12-08,0.0
2010-12-09,0.0
2010-12-10,0.0
2010-12-11,0.0
2010-12-12,0.0
2010-12-13,0.0
2010-12-14,0.0
2010-12-15,0.0
2010-12-16,0.0
2010-12-17,0.0
2010-12-18,0.0
2010-12-19,0.0
2010-12-20,61.0
2010-12-21,367.0
2010-12-22,267.0
2010-12-23,0.0
2010-12-24,0.0
2010-12-25,0.0
2010-12-26,0.0
2010-12-27,0.0
2010-12-28,0.0
2010-12-29,0.0
2010-12-30,0.0
2010-12-31,0.0
2011-01-01,0.0
2011-01-02,0.0
2011-01-03,0.0
2011-01-04,0.0
2011-01-05,0.0
2011-01-06,0.0
2011-01-07,4.0
2011-01-08,105.0
2011-01-09,149.0
2011-01-10,149.0
2011-01-11,149.0
2011-01-12,147.0
2011-01-13,139.0
2011-01-14,139.0
2011-01-15,145.0
2011-01-16,149.0
2011-01-17,114.0
2011-01-18,126.0
2011-01-19,129.0
2011-01-20,140.0
2011-01-21,266.0
2011-01-22,321.0
2011-01-23,327.0
2011-01-24,333.0
2011-01-25,337.0
2011-01-26,336.0
2011-01-27,191.0
2011-01-28,0.0
2011-01-29,0.0
2011-01-30,0.0
2011-01-31,0.0
2011-02-01,0.0
2011-02-02,0.0
2011-02-03,0.0
2011-02-04,0.0
2011-02-05,0.0
2011-02-06,0.0
2011-02-07,0.0
2011-02-08,0.0
2011-02-09,0.0
2011-02-10,0.0
2011-02-11,0.0
2011-02-12,0.0
2011-02-13,0.0
2011-02-14,0.0
2011-02-15,0.0
2011-02-16,0.0
2011-02-17,0.0
2011-02-18,0.0
2011-02-19,0.0
2011-02-20,0.0
2011-02-21,0.0
2011-02-22,0.0
2011-02-23,0.0
2011-02-24,0.0
2011-02-25,0.0
2011-02-26,0.0
2011-02-27,0.0
2011-02-28,0.0
2011-03-01,0.0
2011-03-02,0.0
2011-03-03,0.0
2011-03-04,0.0
2011-03-05,0.0
2011-03-06,0.0
2011-03-07,0.0
2011-03-08,0.0
2011-03-09,0.0
2011-03-10,0.0
2011-03-11,0.0
2011-03-12,0.0
2011-03-13,0.0
2011-03-14,0.0
2011-03-15,0.0
2011-03-16,0.0
2011-03-17,0.0
2011-03-18,0.0
2011-03-19,0.0
2011-03-20,0.0
2011-03-21,0.0
2011-03-22,0.0
2011-03-23,0.0
2011-03-24,0.0
2011-03-25,0.0
2011-03-26,0.0
2011-03-27,0.0
2011-03-28,0.0
2011-03-29,0.0
2011-03-30,0.0
2011-03-31,0.0
2011-04-01,0.0
2011-04-02,0.0
2011-04-03,0.0
2011-04-04,0.0
2011-04-05,0.0
2011-04-06,0.0
2011-04-07,0.0
2011-04-08,0.0
2011-04-09,0.0
2011-04-10,0.0
2011-04-11,0.0
2011-04-12,0.0
2011-04-13,0.0
2011-04-14,0.0
2011-04-15,0.0
2011-04-16,0.0
2011-04-17,0.0
2011-04-18,0.0
2011-04-19,0.0
2011-04-20,0.0
2011-04-21,0.0
2011-04-22,0.0
2011-04-23,0.0
2011-04-24,0.0
2011-04-25,0.0
2011-04-26,0.0
2011-04-27,0.0
2011-04-28,0.0
2011-04-29,0.0
2011-04-30,0.0
2011-05-01,0.0
2011-05-02,0.0
2011-05-03,0.0
2011-05-04,0.0
2011-05-05,0.0
2011-05-06,0.0
2011-05-07,0.0
2011-05-08,0.0
2011-05-09,0.0
2011-05-10,0.0
2011-05-11,0.0
2011-05-12,0.0
2011-05-13,0.0
2011-05-14,0.0
2011-05-15,0.0
2011-05-16,0.0
2011-05-17,0.0
2011-05-18,0.0
2011-05-19,0.0
2011-05-20,0.0
2011-05-21,0.0
2011-05-22,0.0
2011-05-23,0.0
2011-05-24,0.0
2011-05-25,0.0
2011-05-26,0.0
2011-05-27,0.0
2011-05-28,0.0
2011-05-29,0.0
2011-05-30,0.0
2011-05-31,0.0
2011-06-01,0.0
2011-06-02,0.0
2011-06-03,0.0
2011-06-04,0.0
2011-06-05,0.0
2011-06-06,0.0
2011-06-07,0.0
2011-06-08,0.0
2011-06-09,0.0
2011-06-10,0.0
2011-06-11,0.0
2011-06-12,0.0
2011-06-13,0.0
2011-06-14,0.0
2011-06-15,0.0
2011-06-16,0.0
2011-06-17,0.0
2011-06-18,0.0
2011-06-19,0.0
2011-06-20,0.0
2011-06-21,0.0
2011-06-22,0.0
2011-06-23,0.0
2011-06-24,0.0
2011-06-25,0.0
2011-06-26,0.0
2011-06-27,87.0
2011-06-28,54.0
2011-06-29,54.0
2011-06-30,56.0
2011-07-01,189.0
2011-07-02,271.0
2011-07-03,289.0
2011-07-04,252.0
2011-07-05,231.0
2011-07-06,223.0
2011-07-07,182.0
2011-07-08,95.0
2011-07-09,146.0
2011-07-10,182.0
2011-07-11,107.0
2011-07-12,78.0
2011-07-13,97.0
2011-07-14,120.0
2011-07-15,73.0
2011-07-16,136.0
2011-07-17,153.0
2011-07-18,153.0
2011-07-19,113.0
2011-07-20,93.0
2011-07-21,27.0
2011-07-22,14.0
2011-07-23,85.0
2011-07-24,84.0
2011-07-25,80.0
2011-07-26,50.0
2011-07-27,88.0
2011-07-28,97.0
2011-07-29,79.0
2011-07-30,79.0
2011-07-31,79.0
2011-08-01,79.0
2011-08-02,79.0
2011-08-03,79.0
2011-08-04,82.0
2011-08-05,89.0
2011-08-06,89.0
2011-08-07,89.0
2011-08-08,174.0
2011-08-09,228.0
2011-08-10,244.0
2011-08-11,209.0
2011-08-12,180.0
2011-08-13,171.0
2011-08-14,142.0
2011-08-15,46.0
2011-08-16,25.5
2011-08-17,5.0
2011-08-18,42.0
2011-08-19,79.0
2011-08-20,61.0
2011-08-21,35.0
2011-08-22,93.0
2011-08-23,136.0
2011-08-24,180.0
2011-08-25,170.0
2011-08-26,121.0
2011-08-27,116.0
2011-08-28,100.0
2011-08-29,16.0
2011-08-30,0.0
2011-08-31,7.0
2011-09-01,6.0
2011-09-02,0.0
2011-09-03,8.0
2011-09-04,6.0
2011-09-05,19.0
2011-09-06,11.0
2011-09-07,12.0
2011-09-08,55.0
2011-09-09,0.0
2011-09-10,0.0
2011-09-11,0.0
2011-09-12,0.0
2011-09-13,0.0
2011-09-14,0.0
2011-09-15,0.0
2011-09-16,0.0
2011-09-17,0.0
2011-09-18,0.0
2011-09-19,0.0
2011-09-20,0.0
2011-09-21,0.0
2011-09-22,0.0
2011-09-23,0.0
2011-09-24,0.0
2011-09-25,0.0
2011-09-26,0.0
2011-09-27,0.0
2011-09-28,0.0
2011-09-29,0.0
2011-09-30,0.0
2011-10-01,0.0
2011-10-02,0.0
2011-10-03,0.0
2011-10-04,0.0
2011-10-05,0.0
2011-10-06,0.0
2011-10-07,0.0
2011-10-08,0.0
2011-10-09,0.0
2011-10-10,0.0
2011-10-11,0.0
2011-10-12,0.0
2011-10-13,0.0
2011-10-14,0.0
2011-10-15,0.0
2011-10-16,0.0
2011-10-17,0.0
2011-10-18,0.0
2011-10-19,0.0
2011-10-20,0.0
2011-10-21,0.0
2011-10-22,0.0
2011-10-23,0.0
2011-10-24,0.0
2011-10-25,0.0
2011-10-26,0.0
2011-10-27,0.0
2011-10-28,0.0
2011-10-29,0.0
2011-10-30,0.0
2011-10-31,55.0
2011-11-01,122.0
2011-11-02,115.0
2011-11-03,66.0
2011-11-04,435.0
2011-11-05,359.0
2011-11-06,0.0
2011-11-07,336.0
2011-11-08,405.0
2011-11-09,173.0
2011-11-10,0.0
2011-11-11,0.0
2011-11-12,0.0
2011-11-13,0.0
2011-11-14,0.0
2011-11-15,0.0
2011-11-16,0.0
2011-11-17,0.0
2011-11-18,0.0
2011-11-19,0.0
2011-11-20,0.0
2011-11-21,0.0
2011-11-22,0.0
2011-11-23,0.0
2011-11-24,0.0
2011-11-25,0.0
2011-11-26,0.0
2011-11-27,0.0
2011-11-28,0.0
2011-11-29,0.0
2011-11-30,0.0
2011-12-01,0.0
2011-12-02,0.0
2011-12-03,0.0
2011-12-04,0.0
2011-12-05,0.0
2011-12-06,0.0
2011-12-07,0.0
2011-12-08,0.0
2011-12-09,0.0
2011-12-10,0.0
2011-12-11,0.0
2011-12-12,0.0
2011-12-13,0.0
2011-12-14,0.0
2011-12-15,0.0
2011-12-16,0.0
2011-12-17,0.0
2011-12-18,0.0
2011-12-19,0.0
2011-12-20,0.0
2011-12-21,0.0
2011-12-22,0.0
2011-12-23,0.0
2011-12-24,0.0
2011-12-25,0.0
2011-12-26,0.0
2011-12-27,23.0
2011-12-28,30.0
2011-12-29,30.0
2011-12-30,30.0
2011-12-31,36.0
2012-01-01,40.0
2012-01-02,40.0
2012-01-03,37.0
2012-01-04,30.0
2012-01-05,9.0
2012-01-06,0.0
2012-01-07,0.0
2012-01-08,0.0
2012-01-09,0.0
2012-01-10,0.0
2012-01-11,0.0
2012-01-12,0.0
2012-01-13,0.0
2012-01-14,0.0
2012-01-15,0.0
2012-01-16,0.0
2012-01-17,0.0
2012-01-18,0.0
2012-01-19,0.0
2012-01-20,0.0
2012-01-21,0.0
2012-01-22,0.0
2012-01-23,0.0
2012-01-24,0.0
2012-01-25,0.0
2012-01-26,0.0
2012-01-27,0.0
2012-01-28,0.0
2012-01-29,0.0
2012-01-30,0.0
2012-01-31,0.0
2012-02-01,0.0
2012-02-02,0.0
2012-02-03,0.0
2012-02-04,0.0
2012-02-05,0.0
2012-02-06,0.0
2012-02-07,0.0
2012-02-08,21.0
2012-02-09,100.0
2012-02-10,129.0
2012-02-11,129.0
2012-02-12,129.0
2012-02-13,129.0
2012-02-14,129.0
2012-02-15,129.0
2012-02-16,129.0
2012-02-17,129.0
2012-02-18,129.0
2012-02-19,129.0
2012-02-20,129.0
2012-02-21,129.0
2012-02-22,157.0
2012-02-23,177.0
2012-02-24,188.0
2012-02-25,181.0
2012-02-26,53.0
2012-02-27,0.0
2012-02-28,0.0
2012-02-29,0.0
2012-03-01,0.0
2012-03-02,0.0
2012-03-03,0.0
2012-03-04,0.0
2012-03-05,0.0
2012-03-06,0.0
2012-03-07,0.0
2012-03-08,0.0
2012-03-09,0.0
2012-03-10,0.0
2012-03-11,0.0
2012-03-12,0.0
2012-03-13,0.0
2012-03-14,0.0
2012-03-15,11.0
2012-03-16,90.0
2012-03-17,138.0
2012-03-18,126.0
2012-03-19,112.0
2012-03-20,76.0
2012-03-21,60.0
2012-03-22,55.0
2012-03-23,50.0
2012-03-24,46.0
2012-03-25,60.0
2012-03-26,24.0
2012-03-27,3.0
2012-03-28,0.0
2012-03-29,0.0
2012-03-30,0.0
2012-03-31,0.0
2012-04-01,0.0
2012-04-02,0.0
2012-04-03,5.0
2012-04-04,0.0
2012-04-05,0.0
2012-04-06,0.0
2012-04-07,0.0
2012-04-08,0.0
2012-04-09,0.0
2012-04-10,0.0
2012-04-11,0.0
2012-04-12,48.0
2012-04-13,69.0
2012-04-14,69.0
2012-04-15,69.0
2012-04-16,22.0
2012-04-17,0.0
2012-04-18,0.0
2012-04-19,0.0
2012-04-20,0.0
2012-04-21,0.0
2012-04-22,0.0
2012-04-23,38.0
2012-04-24,60.0
2012-04-25,66.0
2012-04-26,71.0
2012-04-27,73.0
2012-04-28,0.0
2012-04-29,0.0
2012-04-30,62.0
2012-05-01,143.0
2012-05-02,58.0
2012-05-03,0.0
2012-05-04,0.0
2012-05-05,0.0
2012-05-06,0.0
2012-05-07,88.0
2012-05-08,154.0
2012-05-09,229.0
2012-05-10,301.0
2012-05-11,351.0
2012-05-12,463.0
2012-05-13,452.0
2012-05-14,543.0
2012-05-15,689.0
2012-05-16,740.0
2012-05-17,708.0
2012-05-18,700.0
2012-05-19,457.0
2012-05-20,305.0
2012-05-21,355.0
2012-05-22,409.0
2012-05-23,313.0
2012-05-24,176.0
2012-05-25,105.0
2012-05-26,62.0
2012-05-27,27.0
2012-05-28,65.0
2012-05-29,159.0
2012-05-30,244.0
2012-05-31,284.0
2012-06-01,93.0
2012-06-02,9.0
2012-06-03,0.0
2012-06-04,0.0
2012-06-05,0.0
2012-06-06,0.0
2012-06-07,0.0
2012-06-08,0.0
2012-06-09,0.0
2012-06-10,0.0
2012-06-11,0.0
2012-06-12,0.0
2012-06-13,0.0
2012-06-14,59.0
2012-06-15,80.0
2012-06-16,86.0
2012-06-17,68.0
2012-06-18,23.0
2012-06-19,0.0
2012-06-20,0.0
2012-06-21,38.0
2012-06-22,66.0
2012-06-23,73.0
2012-06-24,110.0
2012-06-25,100.0
2012-06-26,104.0
2012-06-27,180.0
2012-06-28,206.0
2012-06-29,226.0
2012-06-30,258.0
2012-07-01,269.0
2012-07-02,296.0
2012-07-03,271.0
2012-07-04,254.0
2012-07-05,143.0
2012-07-06,10.0
2012-07-07,53.0
2012-07-08,141.0
2012-07-09,230.0
2012-07-10,282.0
2012-07-11,268.0
2012-07-12,211.0
2012-07-13,120.0
2012-07-14,32.0
2012-07-15,10.0
2012-07-16,4.0
2012-07-17,0.0
2012-07-18,0.0
2012-07-19,15.0
2012-07-20,43.0
2012-07-21,104.0
2012-07-22,145.0
2012-07-23,58.0
2012-07-24,0.0
2012-07-25,0.0
2012-07-26,0.0
2012-07-27,89.0
2012-07-28,135.0
2012-07-29,121.0
2012-07-30,149.0
2012-07-31,200.0
2012-08-01,190.0
2012-08-02,209.0
2012-08-03,210.0
2012-08-04,210.0
2012-08-05,187.0
2012-08-06,152.0
2012-08-07,0.0
2012-08-08,214.0
2012-08-09,233.0
2012-08-10,207.0
2012-08-11,127.0
2012-08-12,57.0
2012-08-13,87.0
2012-08-14,143.0
2012-08-15,196.0
2012-08-16,185.0
2012-08-17,144.0
2012-08-18,140.0
2012-08-19,141.0
2012-08-20,123.0
2012-08-21,107.0
2012-08-22,60.0
2012-08-23,39.0
2012-08-24,63.0
2012-08-25,103.0
2012-08-26,88.0
2012-08-27,17.0
2012-08-28,72.0
2012-08-29,59.0
2012-08-30,94.0
2012-08-31,57.0
2012-09-01,4.0
2012-09-02,0.0
2012-09-03,0.0
2012-09-04,0.0
2012-09-05,0.0
2012-09-06,0.0
2012-09-07,0.0
2012-09-08,0.0
2012-09-09,0.0
2012-09-10,0.0
2012-09-11,0.0
2012-09-12,0.0
2012-09-13,0.0
2012-09-14,0.0
2012-09-15,0.0
2012-09-16,0.0
2012-09-17,0.0
2012-09-18,0.0
2012-09-19,0.0
2012-09-20,0.0
2012-09-21,0.0
2012-09-22,0.0
2012-09-23,0.0
2012-09-24,0.0
2012-09-25,0.0
2012-09-26,0.0
2012-09-27,0.0
2012-09-28,0.0
2012-09-29,0.0
2012-09-30,0.0
2012-10-01,0.0
2012-10-02,0.0
2012-10-03,0.0
2012-10-04,0.0
2012-10-05,0.0
2012-10-06,0.0
2012-10-07,0.0
2012-10-08,0.0
2012-10-09,0.0
2012-10-10,0.0
2012-10-11,0.0
2012-10-12,9.0
2012-10-13,11.0
2012-10-14,0.0
2012-10-15,0.0
2012-10-16,0.0
2012-10-17,0.0
2012-10-18,0.0
2012-10-19,0.0
2012-10-20,0.0
2012-10-21,0.0
2012-10-22,0.0
2012-10-23,0.0
2012-10-24,0.0
2012-10-25,0.0
2012-10-26,0.0
2012-10-27,0.0
2012-10-28,0.0
2012-10-29,0.0
2012-10-30,0.0
2012-10-31,0.0
2012-11-01,0.0
2012-11-02,0.0
2012-11-03,0.0
2012-11-04,0.0
2012-11-05,0.0
2012-11-06,0.0
2012-11-07,0.0
2012-11-08,0.0
2012-11-09,0.0
2012-11-10,0.0
2012-11-11,0.0
2012-11-12,0.0
2012-11-13,0.0
2012-11-14,0.0
2012-11-15,0.0
2012-11-16,0.0
2012-11-17,0.0
2012-11-18,0.0
2012-11-19,0.0
2012-11-20,0.0
2012-11-21,0.0
2012-11-22,0.0
2012-11-23,0.0
2012-11-24,0.0
2012-11-25,0.0
2012-11-26,0.0
2012-11-27,0.0
2012-11-28,0.0
2012-11-29,0.0
2012-11-30,0.0
2012-12-01,0.0
2012-12-02,0.0
2012-12-03,0.0
2012-12-04,0.0
2012-12-05,0.0
2012-12-06,0.0
2012-12-07,0.0
2012-12-08,0.0
2012-12-09,0.0
2012-12-10,0.0
2012-12-11,0.0
2012-12-12,0.0
2012-12-13,0.0
2012-12-14,0.0
2012-12-15,0.0
2012-12-16,0.0
2012-12-17,0.0
2012-12-18,0.0
2012-12-19,0.0
2012-12-20,0.0
2012-12-21,0.0
2012-12-22,0.0
2012-12-23,0.0
2012-12-24,0.0
2012-12-25,0.0
2012-12-26,0.0
2012-12-27,0.0
2012-12-28,0.0
2012-12-29,0.0
2012-12-30,0.0
2012-12-31,0.0
2013-01-01,0.0
2013-01-02,0.0
2013-01-03,0.0
2013-01-04,0.0
2013-01-05,0.0
2013-01-06,0.0
2013-01-07,0.0
2013-01-08,0.0
2013-01-09,0.0
2013-01-10,0.0
2013-01-11,0.0
2013-01-12,0.0
2013-01-13,0.0
2013-01-14,0.0
2013-01-15,0.0
2013-01-16,0.0
2013-01-17,0.0
2013-01-18,0.0
2013-01-19,0.0
2013-01-20,0.0
2013-01-21,0.0
2013-01-22,0.0
2013-01-23,0.0
2013-01-24,0.0
2013-01-25,0.0
2013-01-26,0.0
2013-01-27,0.0
2013-01-28,0.0
2013-01-29,0.0
2013-01-30,0.0
2013-01-31,0.0
2013-02-01,0.0
2013-02-02,0.0
2013-02-03,0.0
2013-02-04,0.0
2013-02-05,0.0
2013-02-06,0.0
2013-02-07,0.0
2013-02-08,0.0
2013-02-09,0.0
2013-02-10,0.0
2013-02-11,0.0
2013-02-12,0.0
2013-02-13,0.0
2013-02-14,0.0
2013-02-15,0.0
2013-02-16,0.0
2013-02-17,0.0
2013-02-18,0.0
2013-02-19,0.0
2013-02-20,0.0
2013-02-21,0.0
2013-02-22,0.0
2013-02-23,0.0
2013-02-24,0.0
2013-02-25,0.0
2013-02-26,0.0
2013-02-27,0.0
2013-02-28,0.0
2013-03-01,0.0
2013-03-02,0.0
2013-03-03,0.0
2013-03-04,0.0
2013-03-05,0.0
2013-03-06,0.0
2013-03-07,0.0
2013-03-08,0.0
2013-03-09,0.0
2013-03-10,0.0
2013-03-11,0.0
2013-03-12,0.0
2013-03-13,0.0
2013-03-14,0.0
2013-03-15,0.0
2013-03-16,0.0
2013-03-17,0.0
2013-03-18,0.0
2013-03-19,0.0
2013-03-20,0.0
2013-03-21,0.0
2013-03-22,0.0
2013-03-23,0.0
2013-03-24,0.0
2013-03-25,0.0
2013-03-26,0.0
2013-03-27,0.0
2013-03-28,0.0
2013-03-29,0.0
2013-03-30,0.0
2013-03-31,0.0
2013-04-01,0.0
2013-04-02,0.0
2013-04-03,0.0
2013-04-04,0.0
2013-04-05,0.0
2013-04-06,0.0
2013-04-07,0.0
2013-04-08,0.0
2013-04-09,0.0
2013-04-10,0.0
2013-04-11,0.0
2013-04-12,0.0
2013-04-13,0.0
2013-04-14,0.0
2013-04-15,0.0
2013-04-16,0.0
2013-04-17,0.0
2013-04-18,0.0
2013-04-19,0.0
2013-04-20,0.0
2013-04-21,0.0
2013-04-22,0.0
2013-04-23,0.0
2013-04-24,0.0
2013-04-25,0.0
2013-04-26,4.0
2013-04-27,67.0
2013-04-28,67.0
2013-04-29,92.0
2013-04-30,131.0
2013-05-01,60.0
2013-05-02,0.0
2013-05-03,0.0
2013-05-04,0.0
2013-05-05,0.0
2013-05-06,24.0
2013-05-07,43.0
2013-05-08,0.0
2013-05-09,0.0
2013-05-10,71.0
2013-05-11,166.0
2013-05-12,333.0
2013-05-13,530.0
2013-05-14,710.0
2013-05-15,703.0
2013-05-16,694.0
2013-05-17,526.0
2013-05-18,312.0
2013-05-19,208.0
2013-05-20,89.0
2013-05-21,34.0
2013-05-22,1.0
2013-05-23,0.0
2013-05-24,27.0
2013-05-25,17.0
2013-05-26,0.0
2013-05-27,0.0
2013-05-28,0.0
2013-05-29,0.0
2013-05-30,0.0
2013-05-31,0.0
2013-06-01,0.0
2013-06-02,0.0
2013-06-03,0.0
2013-06-04,0.0
2013-06-05,0.0
2013-06-06,0.0
2013-06-07,0.0
2013-06-08,0.0
2013-06-09,0.0
2013-06-10,0.0
2013-06-11,0.0
2013-06-12,0.0
2013-06-13,0.0
2013-06-14,0.0
2013-06-15,0.0
2013-06-16,0.0
2013-06-17,0.0
2013-06-18,0.0
2013-06-19,0.0
2013-06-20,0.0
2013-06-21,0.0
2013-06-22,0.0
2013-06-23,0.0
2013-06-24,0.0
2013-06-25,0.0
2013-06-26,4.0
2013-06-27,0.0
2013-06-28,0.0
2013-06-29,0.0
2013-06-30,0.0
2013-07-01,20.0
2013-07-02,91.0
2013-07-03,162.0
2013-07-04,121.0
2013-07-05,0.0
2013-07-06,0.0
2013-07-07,0.0
2013-07-08,0.0
2013-07-09,0.0
2013-07-10,0.0
2013-07-11,0.0
2013-07-12,0.0
2013-07-13,0.0
2013-07-14,0.0
2013-07-15,0.0
2013-07-16,0.0
2013-07-17,0.0
2013-07-18,0.0
2013-07-19,0.0
2013-07-20,0.0
2013-07-21,0.0
2013-07-22,0.0
2013-07-23,18.0
2013-07-24,62.0
2013-07-25,89.0
2013-07-26,114.0
2013-07-27,90.0
2013-07-28,0.0
2013-07-29,0.0
2013-07-30,0.0
2013-07-31,0.0
2013-08-01,51.0
2013-08-02,79.0
2013-08-03,86.0
2013-08-04,75.0
2013-08-05,71.0
2013-08-06,111.0
2013-08-07,108.0
2013-08-08,80.0
2013-08-09,52.0
2013-08-10,45.0
2013-08-11,40.0
2013-08-12,38.0
2013-08-13,36.0
2013-08-14,60.0
2013-08-15,84.0
2013-08-16,88.0
2013-08-17,77.0
2013-08-18,12.0
2013-08-19,0.0
2013-08-20,16.0
2013-08-21,64.0
2013-08-22,75.0
2013-08-23,28.0
2013-08-24,0.0
2013-08-25,0.0
2013-08-26,0.0
2013-08-27,0.0
2013-08-28,0.0
2013-08-29,0.0
2013-08-30,0.0
2013-08-31,0.0
2013-09-01,0.0
2013-09-02,0.0
2013-09-03,0.0
2013-09-04,0.0
2013-09-05,0.0
2013-09-06,0.0
2013-09-07,0.0
2013-09-08,0.0
2013-09-09,0.0
2013-09-10,0.0
2013-09-11,0.0
2013-09-12,0.0
2013-09-13,0.0
2013-09-14,0.0
2013-09-15,0.0
2013-09-16,0.0
2013-09-17,0.0
2013-09-18,0.0
2013-09-19,17.0
2013-09-20,33.0
2013-09-21,19.0
2013-09-22,10.0
2013-09-23,24.0
2013-09-24,18.0
2013-09-25,0.0
2013-09-26,13.0
2013-09-27,0.0
2013-09-28,0.0
2013-09-29,0.0
2013-09-30,25.0
2013-10-01,115.0
2013-10-02,95.0
2013-10-03,0.0
2013-10-04,0.0
2013-10-05,0.0
2013-10-06,0.0
2013-10-07,0.0
2013-10-08,0.0
2013-10-09,0.0
2013-10-10,4.0
2013-10-11,0.0
2013-10-12,0.0
2013-10-13,0.0
2013-10-14,0.0
2013-10-15,0.0
2013-10-16,0.0
2013-10-17,0.0
2013-10-18,0.0
2013-10-19,0.0
2013-10-20,0.0
2013-10-21,0.0
2013-10-22,0.0
2013-10-23,0.0
2013-10-24,0.0
2013-10-25,0.0
2013-10-26,0.0
2013-10-27,0.0
2013-10-28,0.0
2013-10-29,0.0
2013-10-30,0.0
2013-10-31,0.0
2013-11-01,0.0
2013-11-02,0.0
2013-11-03,0.0
2013-11-04,0.0
2013-11-05,0.0
2013-11-06,0.0
2013-11-07,0.0
2013-11-08,0.0
2013-11-09,0.0
2013-11-10,0.0
2013-11-11,0.0
2013-11-12,0.0
2013-11-13,0.0
2013-11-14,0.0
2013-11-15,0.0
2013-11-16,0.0
2013-11-17,0.0
2013-11-18,0.0
2013-11-19,0.0